Regional Weather Roundup
Issued by NWS

Home | Current Version | Previous Version | Text Only | Print | Product List | Glossary On
Versions: 1 2 3 4 5 6 7 8 9 10 11 12 13 14 15 16 17 18 19 20 21 22 23 24 25 26 27 28 29 30 31 32 33 34 35 36 37 38 39 40 41 42 43 44 45 46 47 48 49 50
000
ASUS43 KIND 201909
RWRIN

WEATHER ROUNDUP FOR INDIANA
NATIONAL WEATHER SERVICE INDIANAPOLIS IN
300 PM EDT WED AUG 20 2014

NOTE: "FAIR" INDICATES FEW OR NO CLOUDS BELOW 12,000 FEET WITH NO
SIGNIFICANT WEATHER AND/OR OBSTRUCTIONS TO VISIBILITY.

* - STATION DOES NOT REPORT WEATHER SUCH AS PRECIPITATION OR FOG.

+ - STATION NOT QUALITY CONTROLLED BY THE NATIONAL WEATHER SERVICE.
    USE DATA WITH CAUTION...ESPECIALLY DEWPOINT AND RELATIVE
    HUMIDITY OBSERVATIONS.

INZ001>003-010>013-019-020-202000-
NORTHWEST INDIANA

CITY           SKY/WX    TMP DP  RH WIND       PRES   REMARKS
GARY /AIRPORT/ PTSUNNY   84  64  51 SW12      29.92F
KNOX *+        MOSUNNY   83  66  56 SW10      29.92F
LA PORTE +     MOSUNNY   82  65  57 W13       29.93F
MICHIGAN CITY+ MOSUNNY   81  64  57 W6        29.92F
MONTICELLO +   PTSUNNY   82  69  66 SW10      29.94F
RENSSELAER +   PTSUNNY   82  70  65 SW8       29.94S
VALPARAISO     MOSUNNY   83  65  54 W13G23    29.93F

$$

LMZ046-743>745-202000-
SOUTHERN LAKE MICHIGAN

STATION/POSITION TIME  TEMP WIND        PRES
                       AIR  DIR/SP/G
                 (UTC) (F)  (DEG/KT/KT) (MB)
BURNS HARBOR     1900   81  240/ 15/ 18   N/A
MICHIGAN CITY    1900   79  230/  1/  2   N/A

$$

INZ004-005-014>016-021>024-202000-
NORTH CENTRAL INDIANA

CITY           SKY/WX    TMP DP  RH WIND       PRES   REMARKS
GOSHEN         MOSUNNY   85  65  51 W20G25    29.93S
LOGANSPORT +   PTSUNNY   82  61  47 W9        29.96F
PERU/GRISSOM   MOSUNNY   85  66  52 W16       29.96F
ROCHESTER +    SUNNY     86  64  48 SW12G21   29.94F
SOUTH BEND     MOSUNNY   84  32  15 W12       29.93F
WARSAW +       MOSUNNY   82  66  57 W9        29.94S

$$

INZ006>009-017-018-025>027-202000-
NORTHEAST INDIANA

CITY           SKY/WX    TMP DP  RH WIND       PRES   REMARKS
ANGOLA *+      MOSUNNY   82  77  83 W10       29.93S
AUBURN +       SUNNY     82  61  47 W12G20    29.95S
FORT WAYNE     MOSUNNY   83  66  56 W16       29.94F
HUNTINGTON +   MOSUNNY   83  66  56 W10G18    29.95S

$$

INZ028-029-035-036-043>045-051>053-202000-
WEST CENTRAL INDIANA

CITY           SKY/WX    TMP DP  RH WIND       PRES   REMARKS
GREENCASTLE +  LGT RAIN  70  68  94 W8        30.03F
LAFAYETTE      CLOUDY    79  70  74 S8        29.94F
TERRE HAUTE    LGT RAIN  72  68  87 W5        30.02F

$$

INZ030>032-037>040-046>048-054>057-064-065-202000-
CENTRAL INDIANA

CITY           SKY/WX    TMP DP  RH WIND       PRES   REMARKS
ANDERSON       MOSUNNY   82  61  47 W12G17    30.00R
CP ATTERBURY + TSTM      70  63  78 CALM      30.02R
COLUMBUS       RAIN      75  68  78 NW14      30.02R FOG
FRANKFORT +    CLOUDY    79  70  72 SW9       30.00F
GREENWOOD *+   CLOUDY    77  73  88 W14G21    30.02
INDIANAPOLIS   CLOUDY    76  64  66 W24G32    29.99S
-EAGLE CREEK   CLOUDY    75  65  70 W14       29.98F
KOKOMO *+      PTSUNNY   84  64  51 W16       29.97S
MARION +       PTSUNNY   83  63  50 W13G22    29.98S HAZE
MT COMFORT *+  CLOUDY    81  63  54 W18       30.00S
SHELBYVILLE    TSTM      78  67  68 SW17G31   30.00R
ZIONSVILLE +   CLOUDY    81  68  64 W9        29.99F

$$

INZ033-034-041-042-049-050-058-059-202000-
EAST CENTRAL INDIANA

CITY           SKY/WX    TMP DP  RH WIND       PRES   REMARKS
MUNCIE         PTSUNNY   83  65  54 W14G24    29.98R

$$

INZ060-061-067>069-081>083-085>088-202000-
SOUTHWEST INDIANA

CITY           SKY/WX    TMP DP  RH WIND       PRES   REMARKS
EVANSVILLE     CLOUDY    84  75  74 NW9       30.03R
WASHINGTON +   RAIN      75  71  88 NW16G22   30.05R

$$

INZ062-063-066-070>080-084-089>092-202000-
SOUTH CENTRAL AND SOUTHEAST INDIANA

CITY           SKY/WX    TMP DP  RH WIND       PRES   REMARKS
BLOOMINGTON    LGT RAIN  78  74  87 W10       30.04R

$$




USA.gov is the U.S. government's official web portal to all federal, state and local government web resources and services.